Location: Clarion
(42.7316°N, 93.7330°W)
Time: 08:35:14
(UTC+00:00)

Cosmos 1417 Rocket - Pass Details

Date: 22 April 2026
Orbit: 951 x 998 km, 83.0° (Epoch: 17 May)

Event Time Altitude Azimuth Distance (km) Brightness Sun altitude
Rises 10:28:14 0° 191° (S) 3,643 7.1 -10.0°
Reaches altitude 10° 10:30:45 10° 192° (SSW) 2,694 6.5 -9.6°
Maximum altitude 10:36:54 75° 279° (W) 991 4.5 -8.6°
Drops below altitude 10° 10:43:03 10° 5° (N) 2,689 7.2 -7.6°
Sets 10:45:33 0° 7° (N) 3,636 8.0 -7.1°
